Hourly Weather Roundup
Issued by NWS Central Illinois

Home | Current Version | Previous Version | Text Only | Print | Product List | Glossary On
Versions: 1 2 3 4 5 6 7 8 9 10 11 12 13 14 15 16 17 18 19 20 21 22 23 24 25 26 27 28 29 30 31 32 33 34 35 36 37 38 39 40 41 42 43 44 45 46 47 48 49 50
000
NZUS43 KILX 261810
HWRILX

AREA WEATHER ROUNDUP
NATIONAL WEATHER SERVICE, LINCOLN IL
100 PM CDT THU MAY 26 2016


CITY           SKY/WX    TMP DP  RH WIND       PRES   REMARKS
BLOOMINGTON    CLOUDY    78  66  66 SW7       29.93F HX  80
6HR MIN TEMP:  65; 6HR MAX TEMP:  78; 6HR PCP:  0.56;

CHAMPAIGN      CLOUDY    81  62  52 S12       29.92F HX  82
6HR MIN TEMP:  63; 6HR MAX TEMP:  81; 6HR PCP:  0.20;

DANVILLE       CLOUDY    70  65  83 CALM      29.93R
6HR MIN TEMP:  64; 6HR MAX TEMP:  71; 6HR PCP:  0.07;

DECATUR        CLOUDY    80  66  62 S16       29.92R HX  82
6HR MIN TEMP:  65; 6HR MAX TEMP:  80; 6HR PCP:  0.44;

EFFINGHAM      PTSUNNY   73  67  80 SE6       29.99R
FLORA          CLOUDY    71  67  88 S12       29.98R
6HR MIN TEMP:  67; 6HR MAX TEMP:  76; 6HR PCP:  0.20;

GALESBURG      MOSUNNY   80  67  65 S10       29.91R HX  82
JACKSONVILLE   MOSUNNY   81  64  56 S9        29.92R HX  83
6HR MIN TEMP:  67; 6HR MAX TEMP:  81; 6HR PCP:  0.02;

LACON          CLOUDY    77  64  63 S8        29.90S
6HR MIN TEMP:  64; 6HR MAX TEMP:  77; 6HR PCP:  0.08;

LAWRENCEVILLE  CLOUDY    70  66  87 SE12      29.96F
6HR MIN TEMP:  66; 6HR MAX TEMP:  78; 6HR PCP:  0.28;

LITCHFIELD     CLOUDY    74  67  76 S17       29.95S
$$


CITY           SKY/WX    TMP DP  RH WIND       PRES   REMARKS
LINCOLN        MOSUNNY   78  67  69 S5        29.91F HX  80
6HR MIN TEMP:  65; 6HR MAX TEMP:  79; 6HR PCP:  0.36;

MACOMB         MOSUNNY   80  66  62 S8        29.93R HX  82
MATTOON        CLOUDY    75  65  70 S10       29.93S
6HR MIN TEMP:  64; 6HR MAX TEMP:  75; 6HR PCP:  0.74;

MT CARMEL AP   CLOUDY    69  65  88 S12       29.97F
6HR MIN TEMP:  66; 6HR MAX TEMP:  77; 6HR PCP:  0.25;

OLNEY-NOBLE AP CLOUDY    68  64  88 S9        29.97R
PARIS          PTSUNNY   73  68  84 SE8       29.94F
6HR MIN TEMP:  64; 6HR MAX TEMP:  74; 6HR PCP:  0.21;

PEORIA         MOSUNNY   80  65  59 SW6       29.91S HX  82
6HR MIN TEMP:  66; 6HR MAX TEMP:  80; 6HR PCP:  0.12;

PONTIAC        CLOUDY    76  67  71 S8        29.92F
RANTOUL        CLOUDY    76  66  73 SE8       29.92S
6HR MIN TEMP:  65; 6HR MAX TEMP:  76; 6HR PCP:  0.21;

ROBINSON       CLOUDY    69  65  87 E3        29.97R
6HR MIN TEMP:  64; 6HR MAX TEMP:  76; 6HR PCP:  0.24;

SPRINGFIELD    SUNNY     81  65  58 S17       29.91S HX  83
6HR MIN TEMP:  66; 6HR MAX TEMP:  82; 6HR PCP:  0.48;

TAYLORVILLE    MOSUNNY   78  65  64 SW18      29.93S HX  80
$$

...REGIONAL REPORTS...


CITY           SKY/WX    TMP DP  RH WIND       PRES   REMARKS
CHICAGO O`HARE PTSUNNY   78  64  61 S7        29.88F HX  80
KANKAKEE       MOSUNNY   76  65  67 S10       29.92F
MOLINE         PTSUNNY   85  64  49 SW8G21    29.87F HX  86
MOUNT STERLING MOSUNNY   78  67  68 S7        29.91S HX  81
MOUNT VERNON   CLOUDY    68  63  83 SW12      30.03R
PITTSFIELD     PTSUNNY   80  68  65 SW9       29.93R HX  83
QUINCY         SUNNY     80  65  59 SW8       29.91R HX  82
ROCKFORD       PTSUNNY   79  64  60 VRB7G17   29.89F HX  81
$$


CITY           SKY/WX    TMP DP  RH WIND       PRES   REMARKS
BURLINGTON     SUNNY     81  68  64 SW10      29.90S HX  84
CEDAR RAPIDS   PTSUNNY   77  64  64 S10       29.89S
DES MOINES     CLOUDY    79  64  60 S6        29.88F HX  81
KIRKSVILLE     CLOUDY    78  64  61 S3        29.91F HX  80
OTTUMWA        CLOUDY    78  65  63 SW10      29.89S HX  80
ST LOUIS       PTSUNNY   75  64  68 SE21G30   29.94S
$$


CITY           SKY/WX    TMP DP  RH WIND       PRES   REMARKS
TERRE HAUTE    CLOUDY    71  65  81 E9        29.95F
EVANSVILLE     LGT RAIN  67  64  90 E6        30.04F
INDIANAPOLIS   LGT RAIN  68  64  87 SE8       29.97F
LAFAYETTE      CLOUDY    71  68  90 SE6       29.94F
MADISON        MOSUNNY   79  58  48 SW10G21   29.84F HX  80
MILWAUKEE      CLOUDY    78  64  61 SW17      29.86F HX  80
$$





USA.gov is the U.S. government's official web portal to all federal, state and local government web resources and services.